Weather History for Houma, LA

Change the Weather History Date:

Thursday, October 27, 2011

  Actual Average Record
Temperature  
Mean Temperature 70 °F -  
Max Temperature 80 °F 78 °F 90 °F (1939)
Min Temperature 59 °F 53 °F 34 °F (1943)
Cooling Degree Days 4    
Growing Degree Days 20 (Base 50)    
Moisture  
Dew Point 63 °F    
Average Humidity 93    
Maximum Humidity 100    
Minimum Humidity 57    
Precipitation  
Precipitation 0.00 in - - ()
Sea Level Pressure  
Sea Level Pressure 29.91 in    
Wind  
Wind Speed 2 mph (SE)    
Max Wind Speed 12 mph    
Max Gust Speed -    
Visibility 6 miles    
Events      
Averages and records for this station are not official NWS values.
T = Trace of Precipitation, MM = Missing Value Source: NWS Daily Summary

Daily Weather History Graph

Daily Weather History Graph

Search for Another Location

Airport:

Trip Planner

Search our weather history database for the weather conditions in past years. The results will help you decide how hot, cold, wet, or windy it might be!

Date:

Astronomy

Oct. 27, 2011 Rise Set
Actual Time 7:12 AM CDT 6:20 PM CDT
Civil Twilight 6:47 AM CDT 6:44 PM CDT
Nautical Twilight 6:19 AM CDT 7:12 PM CDT
Astronomical Twilight 5:51 AM CDT 7:40 PM CDT
Moon 8:06 AM CDT (10/27) 7:00 PM CDT (10/27)
Length of Visible Light 11h 57m
Length of Day
11h 08m
New Moon, 1% of the Moon is Illuminated
Oct 27
New Moon
Nov 2
First Quarter
Nov 10
Full
Nov 18
Last Quarter
Nov 25
New

Hourly Weather History & Observations

Time (CDT) Temp. Heat Index Dew Point Humidity Pressure Visibility Wind Dir Wind Speed Gust Speed Precip Events Conditions
12:15 AM 60.8 °F - 60.8 °F 100% 29.96 in 7.0 mi Calm Calm - N/A   Mostly Cloudy
1:15 AM 60.8 °F - 60.8 °F 100% 29.95 in 7.0 mi Calm Calm - N/A   Scattered Clouds
1:35 AM 60.8 °F - 60.8 °F 100% 29.94 in 5.0 mi Calm Calm - N/A   Clear
1:55 AM 59.0 °F - 59.0 °F 100% 29.94 in 7.0 mi Calm Calm - N/A   Scattered Clouds
2:15 AM 60.8 °F - 60.8 °F 100% 29.94 in 7.0 mi Calm Calm - N/A   Mostly Cloudy
2:35 AM 59.0 °F - 59.0 °F 100% 29.94 in 5.0 mi Calm Calm - N/A   Scattered Clouds
2:55 AM 59.0 °F - 59.0 °F 100% 29.93 in 5.0 mi Calm Calm - N/A   Clear
3:15 AM 59.0 °F - 59.0 °F 100% 29.92 in 3.0 mi NE 3.5 mph - N/A   Clear
3:35 AM 59.0 °F - 59.0 °F 100% 29.92 in 5.0 mi Calm Calm - N/A   Clear
3:55 AM 60.8 °F - 60.8 °F 100% 29.92 in 1.2 mi Calm Calm - N/A   Mist
4:15 AM 59.0 °F - 59.0 °F 100% 29.91 in 2.0 mi ENE 3.5 mph - N/A   Clear
4:35 AM 59.0 °F - 59.0 °F 100% 29.91 in 2.5 mi Calm Calm - N/A   Clear
4:55 AM 59.0 °F - 59.0 °F 100% 29.91 in 1.5 mi NE 3.5 mph - N/A   Scattered Clouds
5:15 AM 59.0 °F - 59.0 °F 100% 29.91 in 4.0 mi Calm Calm - N/A   Mostly Cloudy
5:35 AM 60.8 °F - 60.8 °F 100% 29.91 in 4.0 mi Calm Calm - N/A   Overcast
5:50 AM 60.8 °F - 60.8 °F 100% 29.92 in 7.0 mi ENE 6.9 mph - N/A   Scattered Clouds
5:55 AM 60.8 °F - 60.8 °F 100% 29.91 in 4.0 mi Calm Calm - N/A   Overcast
6:50 AM 59.0 °F - 59.0 °F 100% 29.92 in 7.0 mi ENE 6.9 mph - N/A   Scattered Clouds
7:50 AM 60.8 °F - 60.8 °F 100% 29.92 in 5.0 mi NNE 3.5 mph - N/A   Scattered Clouds
8:50 AM 69.8 °F - 68.0 °F 94% 29.92 in 6.0 mi East 4.6 mph - N/A   Scattered Clouds
9:50 AM 69.8 °F - 66.2 °F 88% 29.94 in 7.0 mi North - - N/A   Scattered Clouds
10:52 AM 78.8 °F - 66.2 °F 65% 29.94 in 7.0 mi SSE 10.4 mph - N/A   Scattered Clouds
11:50 AM 78.8 °F - 62.6 °F 57% 29.92 in 7.0 mi SSW 5.8 mph - N/A   Scattered Clouds
12:50 PM 80.6 °F 82.3 °F 64.4 °F 58% 29.92 in 7.0 mi South 9.2 mph - N/A   Scattered Clouds
1:50 PM 80.6 °F 82.3 °F 64.4 °F 58% 29.89 in 7.0 mi SSE 9.2 mph - N/A   Scattered Clouds
2:50 PM 77.0 °F - 66.2 °F 69% 29.87 in 7.0 mi SSE 9.2 mph - N/A   Scattered Clouds
3:50 PM 75.2 °F - 66.2 °F 73% 29.86 in 7.0 mi SSE 11.5 mph - N/A   Scattered Clouds
4:50 PM 77.0 °F - 66.2 °F 69% 29.88 in 7.0 mi South 11.5 mph - N/A   Scattered Clouds
5:50 PM 73.4 °F - 68.0 °F 83% 29.88 in 7.0 mi South 9.2 mph - N/A   Partly Cloudy
6:50 PM 71.6 °F - 68.0 °F 88% 29.90 in 7.0 mi South 9.2 mph - N/A   Clear
7:15 PM 69.8 °F - 68.0 °F 94% 29.89 in 10.0 mi SSE 4.6 mph - N/A   Clear
7:35 PM 69.8 °F - 68.0 °F 94% 29.89 in 7.0 mi SSE 3.5 mph - N/A   Clear
7:55 PM 69.8 °F - 68.0 °F 94% 29.90 in 10.0 mi SSE 3.5 mph - N/A   Clear
8:15 PM 68.0 °F - 68.0 °F 100% 29.91 in 10.0 mi SSE 3.5 mph - N/A   Clear
8:35 PM 68.0 °F - 68.0 °F 100% 29.91 in 10.0 mi SSE 3.5 mph - N/A   Clear
8:55 PM 68.0 °F - 68.0 °F 100% 29.91 in 10.0 mi SSE 3.5 mph - N/A   Clear
9:15 PM 68.0 °F - 68.0 °F 100% 29.91 in 10.0 mi SE 3.5 mph - N/A   Clear
9:35 PM 64.4 °F - 64.4 °F 100% 29.91 in 10.0 mi Calm Calm - N/A   Clear
9:55 PM 64.4 °F - 64.4 °F 100% 29.91 in 10.0 mi Calm Calm - N/A   Clear
10:15 PM 64.4 °F - 64.4 °F 100% 29.91 in 7.0 mi Calm Calm - N/A   Clear
10:35 PM 62.6 °F - 62.6 °F 100% 29.91 in 10.0 mi Calm Calm - N/A   Clear
10:55 PM 62.6 °F - 62.6 °F 100% 29.91 in 7.0 mi Calm Calm - N/A   Clear
11:15 PM 62.6 °F - 62.6 °F 100% 29.91 in 7.0 mi Calm Calm - N/A   Clear
11:55 PM 60.8 °F - 60.8 °F 100% 29.91 in 0.8 mi Calm Calm - N/A   Mist